Regional Weather Roundup
Issued by NWS

Home | Current Version | Previous Version | Text Only | Print | Product List | Glossary Off
Versions: 1 2 3 4 5 6 7 8 9 10 11 12 13 14 15 16 17 18 19 20 21 22 23 24 25 26 27 28 29 30 31 32 33 34 35 36 37 38 39 40 41 42 43 44 45 46 47 48 49 50

000
ASUS43 KDTX 250410
RWRMI
MICHIGAN HOURLY REGIONAL WEATHER ROUNDUP
NATIONAL WEATHER SERVICE DETROIT/PONTIAC MI
1200 AM EDT MON SEP 25 2017

NOTE: "FAIR" INDICATES FEW OR NO CLOUDS BELOW 12,000 FEET WITH NO
SIGNIFICANT WEATHER AND/OR OBSTRUCTION TO VISIBILITY.

MIZ047>049-052>055-059>063-066>070-074>076-081>083-250500-
SOUTHEAST LOWER MICHIGAN

CITY           SKY/WX    TMP DP  RH WIND       PRES   REMARKS
ADRIAN         CLEAR     70  65  84 E3        30.09F
ALMA           CLEAR     72  56  57 CALM      30.08S
ANN ARBOR      CLEAR     62  62 100 CALM      30.09S
BAD AXE        CLEAR     68  63  84 CALM      30.10S
CARO           CLEAR     64  61  90 CALM      30.08F
DETROIT CITY   CLEAR     72  67  84 CALM      30.09S
DETROIT        CLEAR     74  65  73 E3        30.09F
FLINT          CLEAR     70  63  78 S5        30.08F
GROSSE ILE     CLEAR     71  65  82 CALM      30.07F
HILLSDALE      PTCLDY    68  63  83 E5        30.10S
HOWELL         CLEAR     69  62  80 CALM      30.10S

CITY           SKY/WX    TMP DP  RH WIND       PRES   REMARKS
JACKSON        CLEAR     73  62  68 SE5       30.09S
LAMBERTVILLE   PTCLDY    69  66  92 CALM      30.08S FOG
LANSING        CLEAR     74  60  61 SE6       30.08F
LAPEER         FAIR      63  61  95 CALM      30.10S
MASON          CLEAR     72  62  70 S6        30.09S
MONROE         CLEAR     73  68  83 CALM      30.07F
MT. CLEMENS    CLEAR     69  69 100 CALM      30.08S
PONTIAC        CLEAR     68  65  90 CALM      30.09F
PORT HOPE        N/A     74  64  71 S3        30.07F
PORT HURON     FOG       64  63  94 CALM      30.10F VSB<1/4
TRI CITIES     CLEAR     76  65  68 S9        30.08S
MIDLAND        FAIR      74  62  66 CALM      30.07S
TROY           CLEAR     73  64  73 CALM      30.11S
SAGINAW HB     CLEAR     70  63  78 S3        30.07S
$$
MIZ043>046-050>051-056>058-064>065-071>073-077>080-250500-
SOUTHWEST LOWER MICHIGAN

CITY           SKY/WX    TMP DP  RH WIND       PRES   REMARKS
BATTLE CREEK   CLEAR     74  61  63 SE7       30.08F
BENTON HARBOR  CLEAR     65  60  84 CALM      30.03F
BIG RAPIDS     CLEAR     65  61  87 CALM      30.07S
COLDWATER      CLEAR     71  62  73 SE5       30.08S
FREMONT        FAIR      65  63  93 CALM      30.05S
HOLLAND        CLEAR     65  59  81 CALM      30.05F
GRAND RAPIDS   CLEAR     70  59  68 SE6       30.06S
IONIA          FAIR      71  56  60 SE6       30.07S
KALAMAZOO      CLEAR     71  58  63 CALM      30.07F
LUDINGTON      CLEAR     64  60  86 CALM      30.03S
MARSHALL       CLEAR     70  61  72 SE3       30.08S
MOUNT PLEASANT CLEAR     71  57  61 CALM      30.06F
MUSKEGON       CLEAR     67  59  75 CALM      30.04F
SOUTH HAVEN    CLEAR     66  60  82 CALM      30.04F
$$
MIZ016>042-250500-
NORTHERN LOWER MICHIGAN

CITY           SKY/WX    TMP DP  RH WIND       PRES   REMARKS
ALPENA         CLEAR     65  64  97 CALM      30.06F
BEAVER ISLAND  CLEAR     72  64  78 S5        30.02S
BELLAIRE       CLEAR     65  63  94 CALM      30.04F FOG
CADILLAC       CLEAR     65  60  85 CALM      30.08S
CHARLEVOIX     CLEAR     70  63  79 SE5       30.06F
FRANKFORT      CLEAR     66  63  92 CALM      30.02F
GAYLORD        CLEAR     71  59  65 CALM      30.08F
GRAYLING       CLEAR     61  57  86 CALM      30.08F
HARBOR SPRINGS CLEAR     68  66  94 CALM      30.04S
HOUGHTON LAKE  CLEAR     71  61  70 SE5       30.08F
MANISTEE       CLEAR     62  62 100 E6        30.03S
OSCODA         CLEAR     67  64  92 SW3       30.07S
PELLSTON       CLEAR     64  63  96 CALM      30.04F FOG
ROGERS CITY    CLEAR     74  63  67 S10       30.05S
TRAVERSE CITY  CLEAR     72  64  76 CALM      30.02F
$$
MIZ007>008-015-250500-
EASTERN UPPER MICHIGAN

CITY           SKY/WX    TMP DP  RH WIND       PRES   REMARKS
KINROSS        CLEAR     71  66  84 S5        30.03S
MACKINAC ISLAN CLEAR     73  63  72 S7        30.03S
NEWBERRY       CLEAR     68  67  96 S9        30.00F
S. S. MARIE    CLEAR     71  66  84 CALM      30.02S
MUNISING         N/A     72  64  76 S7        29.96F
$$
MIZ004>006-011>014-085-250500-
CENTRAL UPPER MICHIGAN

CITY           SKY/WX    TMP DP  RH WIND       PRES   REMARKS
MANISTIQUE     CLEAR     64  58  81 CALM      30.00S HAZE
ESCANABA       CLEAR     69  66  90 SW3       29.97F
MENOMINEE      CLEAR     70  62  76 SW6       29.98F
SAWYER-GWINN   CLEAR     69  63  82 S9        29.98F
$$
MIZ001>003-009>011-084-250500-
WESTERN UPPER MICHIGAN

CITY           SKY/WX    TMP DP  RH WIND       PRES   REMARKS
IRON MOUNTAIN  CLEAR     71  63  75 SW3       29.98R
HOUGHTON       CLEAR     72  62  71 SW7       29.91S
COPPER HARBOR    N/A     73  63  70 SW7       29.88S
IRONWOOD       CLEAR     75  60  59 S10G20    29.91S
$$

ABBREVIATIONS USED IN REMARKS
   TC - TEMPERATURE IN CELSIUS
  WCI - WIND CHILL INDEX
   HX - HEAT INDEX
  VSB - VISIBILITY




USA.gov is the U.S. government's official web portal to all federal, state and local government web resources and services.